GSAT-11

Last updated on Dec. 5, 2020, 6:14 a.m. UTC

1 43824U 18100B   20339.77271465 -.00000061  00000-0  00000-0 0  9995
2 43824   0.0606 276.7352 0004091 209.2885 300.2049  1.00271705  7261
UTC
Height (km)
Latitude
Longitude
Inclination
Orbital Period
UTC large
Height (km)
Speed (km/s)
/
Latitude / Longitude
Inclination (degrees)
Orbital Period (minutes)
Azimuth
Elevation
Range (km)
Doppler Factor
iOS Compass Heading
iOS Angle

Next 30 passes for location: Hong Kong

Rise time Rise Azimuth (degrees) Set time Set Azimuth (degrees) Duration Max altitude (degrees)

No matching passes for this satellites